Погода в Закульте

Россия / Забайкальский край     51°21′37″N   109°44′17″E
темп.,
°C
ветер,
м/с
пор.,
м/с
влажн.,
%
обл.,
%
осадки,
мм/ч
давл.,
гПа
погр.,
м
15 апреля, чт
чт1500:00−4з1162100 0.0 101617
03:00−5юз2272100 0.0 101625
06:00−6ююз23775 0.0 101542
09:00−3з37599 0.0 1015876
12:00+2сз4628100 0.0 10112770
15:00+3ссз4625100 0.1 10112899
18:00+2сз5737100 0.3 10121869
21:00−3з116441 0.8 101510
16 апреля, пт
пт1600:00−5ююз227299 0.0 101818
03:00−6зюз229490 0.1 102038
06:00−5з268574 0.1 1023455
09:00−3з466678 0.1 1024834
12:00+2зсз462922 0.0 10221976
15:00+5з562343 0.0 10201992
18:00+6з57255 0.0 10181890
21:00+1юз39385 0.0 1020227
17 апреля, сб
сб1700:00−2ююз33455 0.0 101942
03:00−2ююз224969 0.0 101833
06:00−3ю335314 0.0 101745
09:00+5юз28345 0.0 1014491
12:00+11зюз58285 0.0 10091274
15:00+14зюз58235 0.0 10062006
18:00+14зюз57230 0.0 10052121
21:00+7ююз22424 0.0 100710
18 апреля, вс
вс1800:00+4ю22510 0.0 100813
03:00+3ю22525 0.0 100813
06:00+2ююз1157100 0.0 100910
09:00+5сз1150100 0.0 1009217
12:00+10сз2238100 0.0 1006978
15:00+12сз4433100 0.0 10041738
18:00+9сз574889 0.0 10081566
21:00+4сз485175 0.0 1014562
19 апреля, пн
пн1900:00+2сз395578 0.0 10181195
03:00−1зсз376076 0.0 1021618
06:00−4юз22750 0.0 102422
09:000зюз24510 0.0 1024756
12:00+5з23230 0.0 10211257
15:00+9з351867 0.0 10161873
18:00+11юз36205 0.0 10132198
21:00+5ююв33375 0.0 101436